When you browse on this site, cookies collect data to enhance your experience and personalize the content and advertising you see.
Visit our Privacy Policy to learn more. By continuing to use the site, you agree to this use of cookies and data.
  • In Hungary
  • List of Countries
  • For 7 days
  • Water Temperature
  • Satellite Maps
  • Weather Map
  • News
  • Weather Widgets
  • user-avatar
    Login

    Hourly Weather Eseneysola

    Today, 20 November, Tuesday

    Time Temperature Precipitation Wind Pressure Humidity
    00:00 -4°C° 0 mm 3 mps 760 mmHg 90%
    01:00 -4°C° 0 mm 3 mps 760 mmHg 91%
    02:00 -4°C° 0 mm 2 mps 760 mmHg 92%
    03:00 -5°C° 0 mm 2 mps 760 mmHg 94%
    04:00 -5°C° 0 mm 2 mps 759 mmHg 94%
    05:00 -5°C° 0 mm 2 mps 759 mmHg 95%
    06:00 -5°C° 0 mm 2 mps 759 mmHg 95%
    07:00 -5°C° 0 mm 2 mps 759 mmHg 94%
    08:00 -5°C° 0 mm 2 mps 759 mmHg 93%
    09:00 -5°C° 0 mm 2 mps 759 mmHg 92%
    10:00 -4°C° 0 mm 2 mps 758 mmHg 89%
    11:00 -4°C° 0 mm 2 mps 758 mmHg 87%
    12:00 -4°C° 0 mm 2 mps 757 mmHg 84%
    13:00 -4°C° 0 mm 2 mps 757 mmHg 84%
    14:00 -4°C° 0 mm 2 mps 756 mmHg 84%
    15:00 -5°C° 0 mm 3 mps 756 mmHg 83%
    16:00 -5°C° 0 mm 3 mps 755 mmHg 84%
    17:00 -5°C° 0 mm 3 mps 755 mmHg 84%
    18:00 -5°C° 0 mm 4 mps 754 mmHg 85%
    19:00 -5°C° 0 mm 4 mps 753 mmHg 85%
    20:00 -5°C° 0 mm 4 mps 753 mmHg 85%
    21:00 -5°C° 0 mm 4 mps 752 mmHg 85%
    22:00 -5°C° 0 mm 4 mps 751 mmHg 85%
    23:00 -5°C° 0 mm 4 mps 750 mmHg 84%

    Tomorrow, 21 November, Wednesday

    Time Temperature Precipitation Wind Pressure Humidity
    00:00 -5°C° 0 mm 4 mps 750 mmHg 84%
    01:00 -5°C° 0 mm 4 mps 749 mmHg 84%
    02:00 -5°C° 0 mm 4 mps 749 mmHg 84%
    03:00 -6°C° 0 mm 5 mps 749 mmHg 83%
    04:00 -5°C° 0.1 mm 5 mps 748 mmHg 84%
    05:00 -5°C° 0.1 mm 5 mps 748 mmHg 85%
    06:00 -5°C° 0.1 mm 5 mps 747 mmHg 87%
    07:00 -5°C° 0.1 mm 5 mps 747 mmHg 86%
    08:00 -4°C° 0.1 mm 5 mps 747 mmHg 85%
    09:00 -4°C° 0.1 mm 6 mps 747 mmHg 84%
    10:00 -4°C° 0.1 mm 6 mps 747 mmHg 78%
    11:00 -4°C° 0.1 mm 6 mps 747 mmHg 72%
    12:00 -4°C° 0.1 mm 6 mps 747 mmHg 66%
    13:00 -5°C° 0 mm 6 mps 747 mmHg 67%
    14:00 -6°C° 0 mm 5 mps 748 mmHg 68%
    15:00 -6°C° 0 mm 5 mps 748 mmHg 69%
    16:00 -7°C° 0 mm 5 mps 748 mmHg 72%
    17:00 -7°C° 0 mm 5 mps 748 mmHg 75%
    18:00 -7°C° 0 mm 5 mps 749 mmHg 78%
    19:00 -8°C° 0 mm 5 mps 748 mmHg 78%
    20:00 -8°C° 0 mm 5 mps 748 mmHg 79%
    21:00 -8°C° 0 mm 5 mps 748 mmHg 79%
    22:00 -8°C° 0 mm 5 mps 748 mmHg 81%
    23:00 -8°C° 0 mm 4 mps 748 mmHg 82%

    Day after tomorrow, 22 November, Thursday

    Time Temperature Precipitation Wind Pressure Humidity
    00:00 -8°C° 0 mm 4 mps 748 mmHg 84%
    01:00 -8°C° 0 mm 4 mps 748 mmHg 85%
    02:00 -9°C° 0 mm 4 mps 747 mmHg 86%
    03:00 -9°C° 0 mm 4 mps 747 mmHg 88%
    04:00 -8°C° 0 mm 3 mps 747 mmHg 90%
    05:00 -8°C° 0 mm 3 mps 747 mmHg 92%
    06:00 -8°C° 0 mm 3 mps 746 mmHg 94%
    07:00 -7°C° 0.1 mm 3 mps 746 mmHg 92%
    08:00 -8°C° 0.1 mm 4 mps 745 mmHg 90%
    09:00 -7°C° 0.1 mm 5 mps 745 mmHg 88%
    10:00 -6°C° 0.3 mm 5 mps 744 mmHg 86%
    11:00 -6°C° 0.3 mm 6 mps 743 mmHg 85%
    12:00 -6°C° 0.3 mm 7 mps 742 mmHg 83%
    13:00 -6°C° 0.4 mm 7 mps 741 mmHg 84%
    14:00 -6°C° 0.4 mm 7 mps 740 mmHg 85%
    15:00 -6°C° 0.4 mm 7 mps 739 mmHg 86%
    16:00 -5°C° 0.2 mm 6 mps 738 mmHg 87%
    17:00 -5°C° 0.2 mm 6 mps 737 mmHg 88%
    18:00 -6°C° 0.2 mm 5 mps 737 mmHg 89%
    19:00 -5°C° 0.8 mm 5 mps 736 mmHg 89%
    20:00 -5°C° 0.8 mm 5 mps 735 mmHg 89%
    21:00 -5°C° 0.8 mm 6 mps 734 mmHg 90%
    22:00 -6°C° 0.7 mm 7 mps 734 mmHg 88%
    23:00 -7°C° 0.7 mm 8 mps 734 mmHg 87%

    23 November, Friday

    Time Temperature Precipitation Wind Pressure Humidity
    00:00 -8°C° 0.7 mm 9 mps 735 mmHg 85%
    01:00 -9°C° 0.4 mm 9 mps 736 mmHg 83%
    02:00 -9°C° 0.4 mm 9 mps 737 mmHg 81%
    03:00 -10°C° 0.4 mm 9 mps 738 mmHg 79%
    04:00 -10°C° 0 mm 8 mps 739 mmHg 79%
    05:00 -11°C° 0 mm 8 mps 741 mmHg 78%
    06:00 -11°C° 0 mm 8 mps 742 mmHg 78%
    07:00 -12°C° 0 mm 7 mps 743 mmHg 78%
    08:00 -12°C° 0 mm 7 mps 745 mmHg 78%
    09:00 -12°C° 0 mm 7 mps 746 mmHg 78%
    10:00 -12°C° 0 mm 7 mps 747 mmHg 78%
    11:00 -12°C° 0 mm 7 mps 747 mmHg 77%
    12:00 -12°C° 0 mm 7 mps 748 mmHg 76%
    13:00 -11°C° 0 mm 6 mps 749 mmHg 77%
    14:00 -11°C° 0 mm 5 mps 749 mmHg 78%
    15:00 -12°C° 0 mm 5 mps 750 mmHg 79%
    16:00 -11°C° 0 mm 4 mps 750 mmHg 82%
    17:00 -11°C° 0 mm 4 mps 751 mmHg 84%
    18:00 -11°C° 0 mm 4 mps 751 mmHg 87%
    19:00 -11°C° 0 mm 4 mps 751 mmHg 87%
    20:00 -10°C° 0 mm 3 mps 751 mmHg 88%
    21:00 -9°C° 0 mm 3 mps 751 mmHg 88%
    22:00 -9°C° 0 mm 3 mps 751 mmHg 89%
    23:00 -10°C° 0 mm 4 mps 751 mmHg 89%

    24 November, Saturday

    Time Temperature Precipitation Wind Pressure Humidity
    00:00 -9°C° 0 mm 4 mps 751 mmHg 90%
    01:00 -9°C° 0 mm 4 mps 751 mmHg 90%
    02:00 -9°C° 0 mm 4 mps 750 mmHg 91%
    03:00 -10°C° 0 mm 4 mps 750 mmHg 91%
    04:00 -10°C° 0 mm 5 mps 750 mmHg 90%
    05:00 -10°C° 0 mm 5 mps 749 mmHg 90%
    06:00 -9°C° 0 mm 6 mps 749 mmHg 89%
    07:00 -9°C° 0 mm 6 mps 748 mmHg 88%
    08:00 -8°C° 0 mm 6 mps 748 mmHg 88%
    09:00 -8°C° 0 mm 6 mps 747 mmHg 87%
    10:00 -8°C° 0.1 mm 6 mps 747 mmHg 85%
    11:00 -6°C° 0.1 mm 6 mps 747 mmHg 84%
    12:00 -6°C° 0.1 mm 6 mps 746 mmHg 83%
    13:00 -6°C° 0.1 mm 6 mps 746 mmHg 83%
    14:00 -5°C° 0.1 mm 6 mps 745 mmHg 82%
    15:00 -5°C° 0.1 mm 6 mps 745 mmHg 82%
    16:00 -5°C° 0 mm 6 mps 745 mmHg 82%
    17:00 -6°C° 0 mm 7 mps 744 mmHg 81%
    18:00 -6°C° 0 mm 7 mps 744 mmHg 81%
    19:00 -6°C° 0.1 mm 7 mps 744 mmHg 81%
    20:00 -6°C° 0.1 mm 7 mps 744 mmHg 82%
    21:00 -6°C° 0.1 mm 7 mps 744 mmHg 82%
    22:00 -6°C° 0.1 mm 7 mps 745 mmHg 82%
    23:00 -5°C° 0.1 mm 6 mps 745 mmHg 82%

    25 November, Sunday

    Time Temperature Precipitation Wind Pressure Humidity
    00:00 -5°C° 0.1 mm 5 mps 746 mmHg 83%
    01:00 -6°C° 0 mm 5 mps 746 mmHg 85%
    02:00 -7°C° 0 mm 5 mps 747 mmHg 87%
    03:00 -7°C° 0 mm 4 mps 748 mmHg 89%
    04:00 -8°C° 0 mm 4 mps 748 mmHg 91%
    05:00 -8°C° 0 mm 4 mps 748 mmHg 92%
    06:00 -8°C° 0 mm 3 mps 749 mmHg 93%
    07:00 -8°C° 0 mm 3 mps 749 mmHg 93%
    08:00 -8°C° 0 mm 3 mps 749 mmHg 94%
    09:00 -9°C° 0 mm 4 mps 749 mmHg 94%
    10:00 -8°C° 0 mm 4 mps 749 mmHg 93%
    11:00 -7°C° 0 mm 4 mps 749 mmHg 92%
    12:00 -7°C° 0 mm 4 mps 749 mmHg 90%
    13:00 -7°C° 0 mm 4 mps 749 mmHg 90%
    14:00 -7°C° 0 mm 4 mps 749 mmHg 90%
    15:00 -6°C° 0 mm 3 mps 749 mmHg 89%
    16:00 -6°C° 0.1 mm 3 mps 749 mmHg 89%
    17:00 -6°C° 0.1 mm 3 mps 750 mmHg 89%
    18:00 -6°C° 0.1 mm 3 mps 750 mmHg 89%
    19:00 -6°C° 0 mm 3 mps 750 mmHg 90%
    20:00 -6°C° 0 mm 3 mps 750 mmHg 91%
    21:00 -6°C° 0 mm 3 mps 750 mmHg 92%
    22:00 -5°C° 0 mm 2 mps 750 mmHg 92%
    23:00 -5°C° 0 mm 2 mps 750 mmHg 93%
    Show more